Tracking 28920 objects as of 24-May-2024
HD Live streaming from Space Station
objects crossing your sky now

STARLINK-5609

Track STARLINK-5609 now!
10-day predictions
STARLINK-5609 is classified as:


NORAD ID: 55348
Int'l Code: 2023-013T
Perigee: 565.5 km
Apogee: 566.9 km
Inclination: 43.0 °
Period: 95.8 minutes
Semi major axis: 6937 km
RCS: Unknown
Launch date: January 26, 2023
Source: United States (US)
Launch site: AIR FORCE EASTERN TEST RANGE (AFETR)
Your satellite tracking list
Your tracking list is empty




NASA's NSSDC Master Catalog

Two Line Element Set (TLE):
1 55348U 23013T   24145.37661527  .00006557  00000-0  49983-3 0  9996
2 55348  43.0002 255.6924 0000990 229.1980 130.8776 15.02547822 73714
Source of the keplerian elements: AFSPC